Weather History for KNMM - January, 2014

Change the Weather History Date:

Saturday, January 25, 2014

  Actual Average Record
Temperature  
Mean Temperature 40 °F -  
Max Temperature 57 °F 55 °F 73 °F (1999)
Min Temperature 23 °F 37 °F 23 °F (2014)
Degree Days  
Heating Degree Days 25    
Moisture  
Dew Point 15 °F    
Average Humidity 45    
Maximum Humidity 75    
Minimum Humidity 18    
Precipitation  
Precipitation 0.00 in - - ()
Sea Level Pressure  
Sea Level Pressure 30.13 in    
Wind  
Wind Speed 6 mph (WSW)    
Max Wind Speed 18 mph    
Max Gust Speed 28 mph    
Visibility 10 miles    
Events      
Averages and records for this station are not official NWS values.
T = Trace of Precipitation, MM = Missing Value Source: NWS Daily Summary

Daily Weather History Graph

Daily Weather History Graph

Search for Another Location

Airport or City:

Trip Planner

Search our weather history database for the weather conditions in past years. The results will help you decide how hot, cold, wet, or windy it might be!

Date:

Astronomy

Jan. 25, 2014 Rise Set
Actual Time 6:52 AM CST 5:20 PM CST
Civil Twilight 6:26 AM CST 5:46 PM CST
Nautical Twilight 5:56 AM CST 6:16 PM CST
Astronomical Twilight 5:27 AM CST 6:45 PM CST
Moon 1:26 AM CST (1/25) 12:20 PM CST (1/25)
Length of Visible Light 11h 20m
Length of Day
10h 27m
Waning Crescent, 34% of the Moon is Illuminated
Jan 25
Waning Crescent
Jan 30
New
Feb 6
First Quarter
Feb 14
Full
Feb 22
Last Quarter

Hourly Weather History & Observations

Time (CST) Temp. Windchill Dew Point Humidity Pressure Visibility Wind Dir Wind Speed Gust Speed Precip Events Conditions
12:56 AM 24.1 °F - 7.0 °F 48% 30.31 in 10.0 mi Calm Calm - N/A   Clear
1:56 AM 23.0 °F 18.4 °F 8.1 °F 53% 30.29 in 10.0 mi WSW 3.5 mph - N/A   Clear
2:56 AM 23.0 °F 15.8 °F 8.1 °F 53% 30.27 in 10.0 mi SW 5.8 mph - N/A   Clear
3:56 AM 23.0 °F 14.7 °F 9.0 °F 55% 30.25 in 10.0 mi WSW 6.9 mph - N/A   Clear
4:56 AM 23.0 °F 13.9 °F 10.9 °F 60% 30.23 in 10.0 mi WSW 8.1 mph - N/A   Clear
5:56 AM 24.1 °F 14.4 °F 14.0 °F 65% 30.21 in 10.0 mi WSW 9.2 mph - N/A   Clear
6:56 AM 24.1 °F 15.2 °F 14.0 °F 65% 30.20 in 10.0 mi WSW 8.1 mph - N/A   Clear
7:56 AM 26.1 °F 17.6 °F 14.0 °F 60% 30.19 in 10.0 mi WSW 8.1 mph - N/A   Clear
8:56 AM 32.0 °F 22.1 °F 12.9 °F 45% 30.17 in 10.0 mi WSW 13.8 mph 19.6 mph N/A   Clear
9:56 AM 39.0 °F 32.3 °F 14.0 °F 36% 30.14 in 10.0 mi WSW 10.4 mph - N/A   Clear
10:56 AM 45.0 °F 37.4 °F 15.1 °F 30% 30.12 in 10.0 mi SW 18.4 mph 27.6 mph N/A   Clear
11:56 AM 48.9 °F - 15.1 °F 26% 30.09 in 10.0 mi West 15.0 mph 25.3 mph N/A   Clear
12:56 PM 53.1 °F - 14.0 °F 21% 30.04 in 10.0 mi West 13.8 mph 21.9 mph N/A   Clear
1:56 PM 55.9 °F - 14.0 °F 19% 30.03 in 10.0 mi WSW 9.2 mph - N/A   Clear
2:56 PM 57.0 °F - 14.0 °F 18% 30.01 in 10.0 mi WSW 15.0 mph 23.0 mph N/A   Clear
3:56 PM 57.0 °F - 16.0 °F 20% 30.03 in 10.0 mi West 11.5 mph - N/A   Clear
4:56 PM 54.0 °F - 19.0 °F 25% 30.03 in 10.0 mi WNW 11.5 mph - N/A   Clear
5:56 PM 48.9 °F - 19.9 °F 32% 30.05 in 10.0 mi West 5.8 mph - N/A   Clear
6:56 PM 45.0 °F 43.5 °F 21.0 °F 39% 30.08 in 10.0 mi West 3.5 mph - N/A   Clear
7:56 PM 41.0 °F - 21.0 °F 45% 30.09 in 10.0 mi Calm Calm - N/A   Clear
8:56 PM 36.0 °F - 21.9 °F 57% 30.10 in 10.0 mi Calm Calm - N/A   Clear
9:56 PM 34.0 °F - 21.9 °F 61% 30.10 in 10.0 mi Calm Calm - N/A   Clear
10:56 PM 30.9 °F - 23.0 °F 72% 30.10 in 10.0 mi Calm Calm - N/A   Clear
11:56 PM 30.0 °F 26.5 °F 23.0 °F 75% 30.08 in 10.0 mi WNW 3.5 mph - N/A   Clear